Tracking 29091 objects as of 17-Jul-2024
HD Live streaming from Space Station
objects crossing your sky now

STARLINK-4093

Track STARLINK-4093 now!
10-day predictions
STARLINK-4093 is classified as:


NORAD ID: 53157
Int'l Code: 2022-083AB
Perigee: 545.9 km
Apogee: 547.9 km
Inclination: 53.2 °
Period: 95.4 minutes
Semi major axis: 6917 km
RCS: Unknown
Launch date: July 17, 2022
Source: United States (US)
Launch site: AIR FORCE EASTERN TEST RANGE (AFETR)
Your satellite tracking list
Your tracking list is empty




NASA's NSSDC Master Catalog

Two Line Element Set (TLE):
1 53157U 22083AB  24199.38230171 -.00004166  00000-0 -24384-3 0  9999
2 53157  53.2177 339.0059 0001499  72.9957 287.1199 15.08830244111363
Source of the keplerian elements: AFSPC